Regional Weather Roundup
Issued by NWS

Home | Current Version | Previous Version | Text Only | Print | Product List | Glossary Off
Versions: 1 2 3 4 5 6 7 8 9 10 11 12 13 14 15 16 17 18 19 20 21 22 23 24 25 26 27 28 29 30 31 32 33 34 35 36 37 38 39 40 41 42 43 44 45 46 47 48 49 50

000
ASUS44 KMEG 060710
RWRTN
TENNESSEE HOURLY STATE WEATHER ROUNDUP
NATIONAL WEATHER SERVICE MEMPHIS TN
200 AM CDT MON JUL 06 2015

TNZ002-004-019-021-049-052-054-088>092-060800-
WEST TENNESSEE

CITY           SKY/WX    TMP DP  RH WIND       PRES   REMARKS
MEMPHIS INTL   PTCLDY    72  67  84 CALM      30.04F
NWS MEMPHIS      N/A     70 N/A N/A MISG        N/A
JACKSON        PTCLDY    71  69  93 SW7       30.06S
DYERSBURG        N/A    N/A N/A N/A MISG        N/A
PARIS          CLEAR     70  68  94 CALM      30.05S
LEXINGTON      CLEAR     70  68  94 CALM      30.05F
$$

TNZ008-025-027-028-033-062-065-066-060800-
NORTH MIDDLE TENNESSEE

CITY           SKY/WX    TMP DP  RH WIND       PRES   REMARKS
NASHVILLE      CLEAR     71  71 100 S5        30.05F
CLARKSVILLE    CLEAR     70  68  93 CALM      30.04S FOG
SMYRNA         CLEAR     70  70 100 S5        30.06F FOG
COOKEVILLE     CLEAR     66  66 100 CALM      30.08S
CROSSVILLE     PTCLDY    68  64  87 CALM      30.12F FOG
$$

TNZ061-075-076-078-094-096-097-060800-
SOUTH MIDDLE TENNESSEE

CITY           SKY/WX    TMP DP  RH WIND       PRES   REMARKS
FAYETTEVILLE   CLEAR     66  66 100 CALM      30.09S
TULLAHOMA      CLEAR     66  64  94 CALM      30.10S
WINCHESTER     CLEAR     68  68 100 CALM      30.09S
MCMINNVILLE    MOCLDY    70  70 100 CALM      30.09S VSB 1
COLUMBIA       CLEAR     70  70 100 S3        30.05F
SHELBYVILLE    CLEAR     70  70 100 CALM        N/A
$$

TNZ017-018-042-046-047-060800-
NORTHEAST TENNESSEE

CITY           SKY/WX    TMP DP  RH WIND       PRES   REMARKS
TRI CITIES     CLOUDY    68  67  96 SW9       30.09S
ELIZABETHTON   DRIZZLE   64  64 100 W6        30.10S
$$

TNZ012-013-036-069-073-074-060800-
CENTRAL EAST TENNESSEE

CITY           SKY/WX    TMP DP  RH WIND       PRES   REMARKS
KNOXVILLE      PTCLDY    69  65  86 NW5       30.08F
OAK RIDGE      CLOUDY    70  67  90 CALM      30.10F
GATLINBURG     PTSUNNY   68  64  88 CALM      30.09S
MORRISTOWN       N/A     70  68  94 W3        30.11S
$$

TNZ083-085-099-060800-
SOUTHEAST TENNESSEE

CITY           SKY/WX    TMP DP  RH WIND       PRES   REMARKS
CHATTANOOGA    CLEAR     71  68  90 CALM      30.08F
$$

SKY/WX REPORTED AS FAIR MEANS FEW OR NO CLOUDS BELOW
12 THOUSAND FEET.




USA.gov is the U.S. government's official web portal to all federal, state and local government web resources and services.